AirNav   ATP
 
 372 users online  

29LL Monroe County Ambulance Service Heliport
Waterloo, Illinois, USA

GOING TO WATERLOO?


FAA INFORMATION EFFECTIVE 29 MARCH 2018

Location

FAA Identifier: 29LL
Lat/Long: 38-20-21.4000N / 090-09-49.9000W
38-20.356667N / 090-09.831667W
38.3392778 / -90.1638611
(estimated)
Elevation: 630 ft. / 192 m (estimated)
Variation: 00E (2000)
From city: 1 mile W of WATERLOO, IL
Time zone: UTC -5 (UTC -6 during Standard Time)
Zip code: 62298

Heliport Operations

Heliport use: Private use. Permission required prior to landing
Activation date: 02/2001
Control tower: no
ARTCC: KANSAS CITY CENTER
FSS: SAINT LOUIS FLIGHT SERVICE STATION
Attendance: CONTINUOUS
Segmented circle: no

Heliport Communications

WX ASOS at CPS (14 nm N): PHONE 618-332-0001

Nearby radio navigation aids

VOR radial/distance  VOR name  Freq  Var
CSXr160/26.5CARDINAL VOR/DME116.4500E
TOYr202/26.6TROY VORTAC116.0004E
STLr153/34.7ST LOUIS VORTAC117.4001E

 
NDB name  Hdg/Dist  Freq  Var  ID
ACORE204/11.935000ECP -.-. .--.
CIVIC MEMORIAL190/33.626301WCVM -.-. ...- --

Heliport Services

Runway Information

Helipad H1

Dimensions: 40 x 40 ft. / 12 x 12 m
Surface: asphalt
Latitude: 38-20.340000N
Longitude: 090-09.831667W
Elevation: 630.0 ft.
Traffic pattern: leftleft

Heliport Ownership and Management from official FAA records

Ownership: Privately-owned
Owner: MONROE COUNTY
100 S MAIN ST
WATERLOO, IL 62298
Phone 618-939-8681
Manager: CARLA HEISE
901 ILLINOIS AVE
WATERLOO, IL 62298
Phone 618-939-6175

Additional Remarks

A52-H1 MKD POWERLINE 270 FT & 235 FT S, BLDG 125 FT E & TREES 105 FT N.

Instrument Procedures

There are no published instrument procedures at 29LL.

Some nearby airports with instrument procedures:

KFES - Festus Memorial Airport (14 nm SW)
KCPS - St Louis Downtown Airport (14 nm N)
KBLV - Scott Air Force Base/MidAmerica Airport (20 nm NE)
KSAR - Sparta Community Airport-Hunter Field (25 nm SE)
KSTL - St Louis Lambert International Airport (26 nm N)
 
Loc | Ops | Rwys | IFR | FBO | Links
Com | Nav | Svcs | Stats | Notes

AirNav Hotels Sweepstakes
 
Area around 29LL (Monroe County Ambulance Service Heliport)
 
Road maps at: MapQuest Bing Google
 
Aerial photo
No photo
 
Sectional chart

 
Airport distance calculator
Flying to Monroe County Ambulance Service Heliport? Find the distance to fly.

From to 29LL

Sunrise and sunset
Times for 20-Apr-2018
 Local
(UTC-5)
 Zulu
(UTC)
Morning civil twilight05:5110:51
Sunrise06:1911:19
Sunset19:4000:40
Evening civil twilight20:0801:08

Current date and time
Zulu (UTC)  20-Apr-2018 06:51:19
Local (UTC-5)  20-Apr-2018 01:51:19
 
METAR
KCPS 
14nm N 
200553Z AUTO 00000KT 10SM CLR 02/01 A3043 RMK AO2 SLP306 T00170006 10128 20017 401330017 53005 TSNO
KBLV 
19nm NE 
200556Z AUTO 01003KT 10SM CLR 06/M01 A3042 RMK AO2 SLP307 T00561013 10127 20035 401370022 53004 $
KSAR 
25nm SE 
200635Z AUTO 03005KT 10SM CLR 04/01 A3042 RMK AO2 T00420005
KSTL 
26nm N 
200551Z 05004KT 10SM CLR 06/M01 A3043 RMK AO2 SLP309 T00611006 10122 20044 401330017 51005
TAF
KCPS 
14nm N 
200520Z 2006/2106 VRB02KT P6SM SKC FM201500 10008KT P6SM FEW150 FM210200 VRB03KT P6SM SCT150
KBLV 
19nm NE 
200000Z 2000/2106 VRB06KT 9999 SCT050 QNH3036INS BECMG 2017/2018 09012KT 9999 FEW250 QNH3038INS TX15/2020Z TN00/2011Z
NOTAMs
Click for the latest NOTAMs
NOTAMs are issued by the DoD/FAA and will open in a separate window not controlled by AirNav.

 

 
 

Would you like to see your business listed on this page?

 If your business provides an interesting product or service to pilots, flight crews, aircraft, or users of the Monroe County Ambulance Service Heliport, you should consider listing it here.  To start the listing process, click on the button below
 
Add a business
 

Other Pages about Monroe County Ambulance Service Heliport

Update a link
 
Copyright © AirNav, LLC. All rights reserved. Privacy Policy  Contact